Change the Weather History Date:

Sunday, January 19, 2014

  Actual Average Record
Temperature  
Mean Temperature 40 °F -  
Max Temperature 53 °F 50 °F 73 °F (2001)
Min Temperature 28 °F 29 °F 7 °F (1965)
Degree Days  
Heating Degree Days 24    
Moisture  
Dew Point 23 °F    
Average Humidity 51    
Maximum Humidity 70    
Minimum Humidity 32    
Precipitation  
Precipitation 0.00 in - - ()
Sea Level Pressure  
Sea Level Pressure 29.96 in    
Wind  
Wind Speed 7 mph (SW)    
Max Wind Speed 15 mph    
Max Gust Speed 21 mph    
Visibility 10 miles    
Events      
Averages and records for this station are not official NWS values.
T = Trace of Precipitation, MM = Missing Value Source: NWS Daily Summary

Daily Weather History Graph

Daily Weather History Graph

Search for Another Location

Airport or City:

Trip Planner

Search our weather history database for the weather conditions in past years. The results will help you decide how hot, cold, wet, or windy it might be!

Date:

Astronomy

Jan. 19, 2014 Rise Set
Actual Time 7:19 AM EST 5:25 PM EST
Civil Twilight 6:52 AM EST 5:52 PM EST
Nautical Twilight 6:20 AM EST 6:24 PM EST
Astronomical Twilight 5:50 AM EST 6:54 PM EST
Moon 8:53 PM EST (1/19) 8:56 AM EST (1/19)
Length of Visible Light 11h 00m
Length of Day
10h 05m
Waning Gibbous, 89% of the Moon is Illuminated
Jan 19
Waning Gibbous
Jan 24
Last Quarter
Jan 30
New
Feb 6
First Quarter
Feb 14
Full

Hourly Weather History & Observations

Time (EST) Temp. Windchill Dew Point Humidity Pressure Visibility Wind Dir Wind Speed Gust Speed Precip Events Conditions
12:53 AM 28.9 °F 22.8 °F 18.0 °F 64% 30.05 in 10.0 mi SSW 5.8 mph - N/A   Overcast
1:53 AM 30.9 °F 25.2 °F 19.0 °F 61% 30.02 in 10.0 mi South 5.8 mph - N/A   Overcast
2:53 AM 32.0 °F 26.4 °F 19.0 °F 59% 30.01 in 10.0 mi South 5.8 mph - N/A   Mostly Cloudy
3:53 AM 33.1 °F 27.7 °F 19.9 °F 59% 29.99 in 10.0 mi South 5.8 mph - N/A   Clear
4:53 AM 34.0 °F 27.2 °F 19.9 °F 56% 29.97 in 10.0 mi South 8.1 mph - N/A   Overcast
5:53 AM 34.0 °F 28.0 °F 19.9 °F 56% 29.96 in 10.0 mi SSW 6.9 mph - N/A   Overcast
6:53 AM 35.1 °F 29.3 °F 19.0 °F 52% 29.95 in 10.0 mi South 6.9 mph - N/A   Overcast
7:53 AM 35.1 °F 30.1 °F 19.9 °F 54% 29.97 in 10.0 mi SSW 5.8 mph - N/A   Mostly Cloudy
8:53 AM 37.0 °F 31.6 °F 21.0 °F 52% 29.98 in 10.0 mi SSW 6.9 mph - N/A   Partly Cloudy
9:53 AM 39.9 °F 34.5 °F 21.9 °F 49% 29.99 in 10.0 mi SW 8.1 mph - N/A   Overcast
10:53 AM 46.0 °F 40.2 °F 21.9 °F 39% 29.99 in 10.0 mi SW 12.7 mph - N/A   Clear
11:53 AM 48.9 °F - 21.9 °F 35% 29.96 in 10.0 mi West 11.5 mph - N/A   Clear
12:53 PM 50.0 °F - 21.0 °F 32% 29.92 in 10.0 mi WSW 11.5 mph 20.7 mph N/A   Clear
1:53 PM 52.0 °F - 24.1 °F 34% 29.90 in 10.0 mi SW 8.1 mph 16.1 mph N/A   Clear
2:53 PM 53.1 °F - 25.0 °F 34% 29.89 in 10.0 mi WSW 12.7 mph 18.4 mph N/A   Clear
3:53 PM 53.1 °F - 24.1 °F 32% 29.91 in 10.0 mi WSW 15.0 mph 19.6 mph N/A   Clear
4:53 PM 52.0 °F - 24.1 °F 34% 29.91 in 10.0 mi West 10.4 mph 18.4 mph N/A   Clear
5:53 PM 48.0 °F - 25.0 °F 41% 29.93 in 10.0 mi WSW 4.6 mph - N/A   Clear
6:53 PM 39.9 °F 37.8 °F 27.0 °F 60% 29.94 in 10.0 mi SW 3.5 mph - N/A   Clear
7:53 PM 37.0 °F 33.3 °F 27.0 °F 67% 29.95 in 10.0 mi SW 4.6 mph - N/A   Clear
8:53 PM 37.0 °F 34.5 °F 26.1 °F 65% 29.95 in 10.0 mi South 3.5 mph - N/A   Clear
9:53 PM 37.0 °F 32.4 °F 26.1 °F 65% 29.96 in 10.0 mi SSW 5.8 mph - N/A   Clear
10:53 PM 37.9 °F 33.5 °F 26.1 °F 62% 29.95 in 10.0 mi SSW 5.8 mph - N/A   Clear
11:53 PM 35.1 °F 29.3 °F 26.1 °F 70% 29.94 in 10.0 mi SSW 6.9 mph - N/A   Clear